Tracking 22779 objects as of 14-Apr-2021
HD Live streaming from Space Station
objects crossing your sky now

INTERCOSMOS 25

Track INTERCOSMOS 25 now!
10-day predictions
INTERCOSMOS 25 is classified as:


NORAD ID: 21819
Int'l Code: 1991-086A
Perigee: 446.1 km
Apogee: 2,883.4 km
Inclination: 82.6 °
Period: 119.5 minutes
Semi major axis: 8035 km
RCS: 7.3989 m2 (large)
Launch date: December 18, 1991
Source: Commonwealth of Independent States (former USSR) (CIS)
Launch site: PLESETSK MISSILE AND SPACE COMPLEX (PKMTR)
aabbcc
Your satellite tracking list
Your tracking list is empty




NASA's NSSDC Master Catalog

Two Line Element Set (TLE):
1 21819U 91086A   21103.10770289  .00000870  00000-0  17363-3 0  9994
2 21819  82.5774 306.7606 1516524 353.5130   4.8099 12.05209373280404
Source of the keplerian elements: AFSPC